DW3422 Weather Reports


time (UTC)temp
F
wind
direction
speed
knots
gust
knots
rain 1hr
in
rain 24hr
in
rain mn
in
humidity
%
barometer
mb
20260505153041 56 200 2.6 0.0 0.00 0.00 0.00 84 1014.9
20260505151553 56 176 2.6 0.0 0.00 0.00 0.00 84 1014.8
20260505124517 56 186 3.5 0.0 0.00 0.00 0.00 84 1013.3
20260505123017 55 198 1.7 0.0 0.00 0.00 0.00 85 1013.2
20260505121516 55 175 3.5 0.0 0.00 0.00 0.00 85 1013.1
20260505120014 55 192 3.5 0.0 0.00 0.00 0.00 85 1013.1
20260505114516 55 160 3.5 0.0 0.00 0.00 0.00 85 1013.1
20260505113017 55 189 4.3 0.0 0.00 0.00 0.00 85 1012.9
20260505111510 55 207 4.3 0.0 0.00 0.00 0.00 85 1012.9
20260505101502 55 148 4.3 0.0 0.00 0.00 0.00 86 1012.3
20260505094558 55 150 3.5 0.0 0.00 0.00 0.00 86 1012.2
20260505093055 55 161 1.7 0.0 0.00 0.00 0.00 85 1012.0
20260505091552 56 142 3.5 0.0 0.00 0.00 0.00 85 1012.0
20260505084553 56 119 2.6 0.0 0.00 0.00 0.00 84 1011.7
20260505083055 56 164 2.6 0.0 0.00 0.00 0.00 84 1011.6
20260505081547 56 146 3.5 0.0 0.00 0.00 0.00 83 1011.5
20260505080042 57 167 2.6 0.0 0.00 0.00 0.00 83 1011.5
20260505074541 57 165 2.6 0.0 0.00 0.00 0.00 82 1011.4
20260505073040 58 164 3.5 0.0 0.00 0.00 0.00 81 1011.2
20260505071535 58 203 2.6 0.0 0.00 0.00 0.00 80 1011.1
20260505070034 59 178 3.5 0.0 0.00 0.00 0.00 79 1010.9
20260505064533 60 169 2.6 0.0 0.00 0.00 0.00 77 1010.7
20260505063031 61 161 2.6 0.0 0.00 0.00 0.00 76 1010.6
20260505061531 62 177 2.6 0.0 0.00 0.00 0.00 75 1010.5
20260505060033 62 190 2.6 0.0 0.00 0.00 0.00 74 1010.3
20260505054536 63 172 1.7 0.0 0.00 0.00 0.00 73 1010.3
20260505053033 64 169 2.6 0.0 0.00 0.00 0.00 71 1010.1
20260505051526 65 170 2.6 0.0 0.00 0.00 0.00 69 1010.0
20260505041524 69 152 0.9 0.0 0.00 0.00 0.00 63 1009.3
20260505040024 70 155 0.9 0.0 0.00 0.00 0.00 62 1009.0
20260505034523 71 149 0.0 0.0 0.00 0.00 0.00 60 1008.8
20260505033025 72 150 0.0 0.0 0.00 0.00 0.00 60 1008.6
20260505031522 73 151 0.9 0.0 0.00 0.00 0.00 57 1008.4
20260505030027 74 149 0.9 0.0 0.00 0.00 0.00 55 1008.3
20260505024522 75 126 1.7 0.0 0.00 0.00 0.00 53 1008.0
20260505023022 76 195 1.7 0.0 0.00 0.00 0.00 51 1007.9
20260505021520 76 171 2.6 0.0 0.00 0.00 0.00 48 1008.0
20260505020019 77 198 1.7 0.0 0.00 0.00 0.00 43 1007.9
20260505014519 77 163 2.6 0.0 0.00 0.00 0.00 43 1007.9
20260505013018 77 189 2.6 0.0 0.00 0.00 0.00 42 1007.9
20260505011520 78 154 2.6 0.0 0.00 0.00 0.00 40 1008.1
20260505010017 78 178 2.6 0.0 0.00 0.00 0.00 40 1008.2
20260505004534 78 172 2.6 0.0 0.00 0.00 0.00 39 1008.1
20260505003015 79 194 2.6 0.0 0.00 0.00 0.00 38 1008.2
20260505001515 79 183 1.7 0.0 0.00 0.00 0.00 39 1008.2
20260505000020 79 153 2.6 0.0 0.00 0.00 0.00 38 1008.3
20260504234525 79 199 1.7 0.0 0.00 0.00 0.00 35 1008.5
20260504233013 79 192 2.6 0.0 0.00 0.00 0.00 36 1008.5
20260504231531 79 239 2.6 0.0 0.00 0.00 0.00 35 1008.5
20260504230013 79 255 3.5 0.0 0.00 0.00 0.00 34 1008.6
20260504224511 79 205 1.7 0.0 0.00 0.00 0.00 35 1008.8
20260504223011 79 42 2.6 0.0 0.00 0.00 0.00 33 1009.0
20260504221510 79 9 1.7 0.0 0.00 0.00 0.00 36 1009.2
20260504220010 79 292 2.6 0.0 0.00 0.00 0.00 41 1009.3
20260504214515 79 194 2.6 0.0 0.00 0.00 0.00 40 1009.5
20260504213009 79 182 2.6 0.0 0.00 0.00 0.00 39 1009.5
20260504211508 79 278 1.7 0.0 0.00 0.00 0.00 46 1009.4
20260504210010 79 196 2.6 0.0 0.00 0.00 0.00 41 1009.6
20260504204502 78 189 1.7 0.0 0.00 0.00 0.00 44 1009.7
20260504203002 78 325 1.7 0.0 0.00 0.00 0.00 45 1009.7
20260504201602 77 219 1.7 0.0 0.00 0.00 0.00 44 1009.7
20260504194558 76 165 2.6 0.0 0.00 0.00 0.00 47 1009.7
20260504193054 76 158 2.6 0.0 0.00 0.00 0.00 48 1009.7
20260504191552 75 327 1.7 0.0 0.00 0.00 0.00 43 1009.9
20260504190056 74 182 1.7 0.0 0.00 0.00 0.00 48 1009.9
20260504184600 73 188 2.6 0.0 0.00 0.00 0.00 48 1010.1
20260504183046 72 170 1.7 0.0 0.00 0.00 0.00 52 1010.0
20260504181538 70 167 1.7 0.0 0.00 0.00 0.00 56 1010.1
20260504180034 68 194 2.6 0.0 0.00 0.00 0.00 59 1010.1
20260504174530 67 169 2.6 0.0 0.00 0.00 0.00 60 1010.2
20260504173027 66 167 2.6 0.0 0.00 0.00 0.00 63 1010.1
20260504171537 65 186 1.7 0.0 0.00 0.00 0.00 63 1010.1